Change the Weather History Date:

Thursday, July 11, 2013

  Actual Average Record
Temperature  
Mean Temperature 68 °F 70 °F  
Max Temperature 80 °F 90 °F 103 °F (2002)
Min Temperature 55 °F 50 °F 28 °F (1890)
Degree Days  
Heating Degree Days 0 1  
Month to date heating degree days 0 11  
Since 1 June heating degree days 63 142  
Since 1 July heating degree days 0 11  
Cooling Degree Days 3 6  
Month to date cooling degree days 134 52  
Year to date cooling degree days 261 103  
Since 1 June cooling degree days 257 99  
Growing Degree Days 20 (Base 50)    
Moisture  
Dew Point 48 °F    
Average Humidity 50    
Maximum Humidity 84    
Minimum Humidity 16    
Precipitation  
Precipitation 0.06 in 0.01 in 0.32 in (1997)
Month to date precipitation 0.44 0.11  
Year to date precipitation 3.30 5.65  
Snow  
Snow 0.00 in 0.00 in 0.00 in (1888)
Month to date snowfall 0.0 0.0  
Since 1 June snowfall 0.0 0.0  
Since 1 July snowfall 0.0 0.0  
Snow Depth 0.00 in    
Sea Level Pressure  
Sea Level Pressure 29.93 in    
Wind  
Wind Speed 6 mph (South)    
Max Wind Speed 24 mph    
Max Gust Speed 31 mph    
Visibility 10 miles    
Events Rain    
T = Trace of Precipitation, MM = Missing Value Source: NWS Daily Summary

Daily Weather History Graph

Daily Weather History Graph

Search for Another Location

Airport or City:

Trip Planner

Search our weather history database for the weather conditions in past years. The results will help you decide how hot, cold, wet, or windy it might be!

Date:

Astronomy

Jul. 11, 2013 Rise Set
Actual Time 5:21 AM PDT 8:15 PM PDT
Civil Twilight 4:49 AM PDT 8:47 PM PDT
Nautical Twilight 4:07 AM PDT 9:29 PM PDT
Astronomical Twilight 3:19 AM PDT 10:16 PM PDT
Moon 8:46 AM PDT (7/11) 9:56 PM PDT (7/11)
Length of Visible Light 15h 58m
Length of Day
14h 53m
Waxing Crescent, 11% of the Moon is Illuminated
Jul 11
Waxing Crescent
Jul 15
First Quarter
Jul 22
Full
Jul 29
Last Quarter
Aug 6
New

Hourly Weather History & Observations

Time (PDT) Temp. Dew Point Humidity Pressure Visibility Wind Dir Wind Speed Gust Speed Precip Events Conditions
12:56 AM 77.0 °F 28.0 °F 17% 29.84 in 10.0 mi Calm Calm - N/A   Clear
1:56 AM 75.0 °F 30.0 °F 19% 29.85 in 10.0 mi South 8.1 mph - N/A   Clear
2:56 AM 73.9 °F 33.1 °F 22% 29.83 in 10.0 mi South 9.2 mph - N/A   Scattered Clouds
3:56 AM 73.0 °F 34.0 °F 24% 29.83 in 10.0 mi SSW 6.9 mph - N/A   Partly Cloudy
4:56 AM 73.9 °F 34.0 °F 23% 29.83 in 10.0 mi SW 8.1 mph - N/A   Scattered Clouds
5:56 AM 78.1 °F 37.9 °F 24% 29.86 in 10.0 mi West 20.7 mph 31.1 mph N/A   Overcast
6:56 AM 71.1 °F 45.0 °F 39% 29.91 in 10.0 mi West 16.1 mph - 0.00 in   Overcast
7:56 AM 66.0 °F 51.1 °F 59% 29.94 in 10.0 mi SW 9.2 mph - N/A   Mostly Cloudy
8:56 AM 63.0 °F 55.0 °F 75% 30.01 in 10.0 mi SSW 6.9 mph - 0.00 in Rain Light Rain
9:56 AM 61.0 °F 55.9 °F 83% 30.02 in 6.0 mi Calm Calm - 0.04 in Rain Light Rain
10:56 AM 63.0 °F 55.9 °F 78% 30.03 in 10.0 mi Variable 3.5 mph - 0.01 in   Overcast
11:56 AM 62.1 °F 55.0 °F 78% 30.03 in 10.0 mi ESE 10.4 mph 16.1 mph 0.01 in Rain Light Rain
12:56 PM 64.9 °F 55.9 °F 73% 30.01 in 10.0 mi Variable 4.6 mph - 0.00 in   Mostly Cloudy
1:56 PM 68.0 °F 54.0 °F 61% 29.98 in 10.0 mi East 4.6 mph - N/A   Partly Cloudy
2:56 PM 68.0 °F 54.0 °F 61% 29.98 in 10.0 mi South 5.8 mph - N/A   Mostly Cloudy
3:56 PM 69.1 °F 53.1 °F 57% 29.96 in 10.0 mi NW 4.6 mph - N/A   Overcast
4:56 PM 68.0 °F 54.0 °F 61% 29.93 in 10.0 mi East 3.5 mph - 0.00 in   Overcast
5:56 PM 71.1 °F 53.1 °F 53% 29.89 in 10.0 mi SE 5.8 mph - N/A   Clear
6:56 PM 70.0 °F 54.0 °F 57% 29.91 in 10.0 mi NE 3.5 mph - N/A   Clear
7:56 PM 69.1 °F 55.0 °F 61% 29.91 in 10.0 mi ENE 4.6 mph - N/A   Clear
8:56 PM 68.0 °F 55.0 °F 63% 29.92 in 10.0 mi NE 4.6 mph - N/A   Clear
9:56 PM 66.9 °F 51.1 °F 57% 29.93 in 10.0 mi West 3.5 mph - N/A   Clear
10:56 PM 64.0 °F 52.0 °F 65% 29.93 in 10.0 mi ESE 3.5 mph - N/A   Clear
11:56 PM 60.1 °F 50.0 °F 69% 29.95 in 10.0 mi North 4.6 mph - N/A   Clear